{"data":{"norad_id":55661,"epoch":"2026-05-24T22:18:19.590624Z","epoch_age_seconds":81343,"freshness":"FRESH","line1":"1 55661U 23021AK  26144.92939341  .00000511  00000+0  50625-4 0  9996","line2":"2 55661  69.9996 332.2631 0002610 269.9070  90.1790 14.98330939180706","mean_motion":14.98330939,"eccentricity":0.000261,"inclination_deg":69.9996,"raan_deg":332.2631,"arg_perigee_deg":269.907,"mean_anomaly_deg":90.179,"bstar":5.0625e-5,"rev_number":18070,"period_min":96.106938895693,"perigee_km":570.23898757924,"apogee_km":573.86698675254,"semimajor_km":6950.1899871659,"source":"CELESTRAK","updated_at":"2026-05-25T13:38:17.873885Z"}}